Location: Village de las Huertas
(35.3014°N, 106.4095°W)
Time: 09:12:38
(UTC+00:00)

deb Chang Zheng 4 - Pass Details

Date: 29 October 2020
Orbit: 602 x 624 km, 98.6° (Epoch: 04 December)

Event Time Altitude Azimuth Distance (km) Brightness Sun altitude
Rises 12:03:11 0° 7° (N) 2,863 7.0 -17.2°
Reaches altitude 10° 12:05:24 10° 3° (N) 1,958 6.1 -16.7°
Maximum altitude 12:09:32 54° 286° (WNW) 744 3.6 -15.9°
Drops below altitude 10° 12:13:40 10° 209° (SSW) 1,957 5.9 -15.1°
Sets 12:15:52 0° 205° (SSW) 2,861 6.8 -14.6°
